[[{"header":{"parameterUnit":"m.s-1","parameterCategory":1,"la1":30.2991,"la2":30.254,"lo1":-89.0895,"lo2":-89.0444,"dy":0.0017,"dx":0.0017,"nx":28,"ny":28,"refTime":"2023-10-11T03:00:00:Z","depth":0,"parameterNumber":2,"parameterNumberName":"U-component_of_WINDS"},"data":[0,0,0,0,0,0,0,0,0,0,0,0,0,0,0,0,0,0,0,0,0,0,0,0,0,0,0,0,0,0,0,0,0,0,0,0,0,0,0,0,0,0,0,0,0,0,0,0,0,0,0,0,0,0,0,0,0,0,-4.707,-4.7069,0,-4.6981,-4.698,-4.698,-4.6782,-4.6778,-4.6774,-4.677,-4.6686,-4.6688,-4.6689,0,0,0,0,0,0,0,0,0,0,0,0,0,-4.7074,-4.7075,-4.707,-4.7069,-4.7067,-4.6982,-4.698,-4.6979,-4.6782,-4.6777,-4.6772,-4.6768,-4.6686,-4.6688,-4.669,0,0,0,0,0,0,0,0,0,0,0,0,0,-4.7038,-4.7075,-4.707,-4.6959,-4.6948,-4.6982,-4.698,-4.6979,-4.6783,-4.6777,-4.6771,-4.6766,-4.6685,-4.6688,-4.669,-4.6827,0,0,-4.6697,-4.6698,0,0,0,0,0,0,0,0,-4.704,-4.7038,-4.6976,-4.6966,-4.6954,-4.6886,-4.6951,-4.6928,-4.6785,-4.6846,-4.677,-4.6763,-4.6758,-4.6754,-4.6751,-4.6823,-4.6819,-4.6697,-4.6699,-4.67,-4.67,0,0,0,0,0,0,0,-4.7043,-4.7041,-4.7035,-4.6976,-4.6962,-4.6915,-4.6903,-4.6946,-4.6838,-4.684,-4.6826,-4.6818,-4.6751,-4.675,-4.6748,-4.6818,-4.6697,-4.6699,-4.6701,-4.6702,-4.6999,-4.7005,0,0,0,0,0,0,-4.7061,-4.7044,-4.7038,-4.7032,-4.6983,-4.692,-4.6907,-4.6914,-4.6837,-4.6819,-4.6823,-4.6809,-4.6749,-4.6745,-4.6744,-4.69,-4.67,-4.6702,-4.6703,-4.6993,-4.7001,-4.7008,0,0,0,0,0,0,-4.7061,-4.7062,-4.7041,-4.7034,-4.7028,-4.6927,-4.6937,-4.6916,-4.6914,-4.6823,-4.6804,-4.6841,-4.6744,-4.6741,-4.6808,-4.6895,-4.6703,-4.6705,-4.6985,-4.6995,-4.7004,-4.7214,0,0,0,0,0,0,-4.7062,-4.7063,-4.7113,-4.7037,-4.7029,-4.7105,-4.6942,-4.6919,-4.6918,-4.6898,-4.6835,-4.6819,-4.6739,-4.6805,-4.681,-4.6895,-4.6707,-4.6977,-4.699,-4.7001,-4.7199,-4.723,-4.7256,0,0,0,0,0,-4.7063,-4.7177,-4.7116,-4.7117,-4.7088,-4.711,-4.7106,-4.7009,-4.6925,-4.6976,-4.6918,-4.6821,-4.6884,-4.6814,-4.6817,-4.6904,-4.6971,-4.6986,-4.7,-4.7186,-4.7224,-4.7255,0,0,0,0,0,0,-4.7268,-4.7165,-4.7097,-4.7188,-4.7159,-4.7077,-4.7137,-4.7052,-4.7048,-4.703,-4.6913,-4.69,-4.6984,-4.695,-4.6873,-4.7033,-4.6912,-4.6928,-4.7052,-4.7087,-4.7115,-4.7122,-4.6709,0,0,0,0,0,-4.7324,-4.7348,-4.7257,-4.7347,-4.7335,-4.7239,-4.7245,-4.7173,-4.7139,-4.7127,-4.7073,-4.7046,-4.7059,-4.7071,-4.7079,-4.7193,-4.7177,-4.7254,-4.7283,-4.7307,-4.7323,-4.7382,-4.7416,-4.7056,-4.7056,-4.7055,0,0,-4.7439,-4.7386,-4.7408,-4.7386,-4.7355,-4.7385,-4.723,-4.7268,-4.729,-4.7133,-4.7192,-4.7153,-4.7114,-4.7206,-4.7244,-4.7181,-4.7419,-4.7325,-4.7345,-4.7348,-4.7401,-4.7435,-4.7465,-4.7066,-4.7064,-4.7062,0,0,-4.7665,-4.7626,-4.7697,-4.7669,-4.7623,-4.7558,-4.7576,-4.7506,-4.7473,-4.753,-4.7414,-4.7439,-4.7464,-4.7442,-4.7435,-4.7653,-4.7565,-4.7659,-4.7809,-4.7868,-4.7897,-4.7921,-4.8001,-4.8031,-4.7675,-4.7675,-4.7676,0,-4.7816,-4.7853,-4.7745,-4.779,-4.7785,-4.7642,-4.7714,-4.7693,-4.7654,-4.7655,-4.7584,-4.7613,-4.7578,-4.7663,-4.7716,-4.7714,-4.7732,-4.7666,-4.7901,-4.7925,-4.7946,-4.8021,-4.8051,-4.7687,-4.7686,-4.7685,-4.7683,0,-4.8041,-4.807,-4.8133,-4.8096,-4.8097,-4.8157,-4.8059,-4.8075,-4.8003,-4.7947,-4.8008,-4.796,-4.7956,-4.797,-4.7901,-4.8046,-4.8009,-4.7922,-4.7798,-4.7994,-4.8062,-4.809,-4.7704,-4.77,-4.7696,-4.7693,0,0,-4.8395,-4.8296,-4.8322,-4.8304,-4.8243,-4.8264,-4.8317,-4.8311,-4.8327,-4.8305,-4.8348,-4.8373,-4.8292,-4.8284,-4.8211,-4.8263,-4.8441,-4.8169,-4.8166,-4.8223,-4.86,-4.8668,-4.8702,-4.8382,-4.8387,-4.8391,-4.8604,0,-4.8607,-4.869,-4.8595,-4.87,-4.8726,-4.859,-4.8637,-4.8607,-4.8556,-4.8572,-4.8516,-4.8536,-4.8427,-4.8421,-4.8466,-4.841,-4.8516,-4.8393,-4.8424,-4.8426,-4.8439,-4.8737,-4.8808,-4.9012,-4.863,-4.8634,-4.8637,0,-4.8867,-4.8855,-4.8962,-4.8895,-4.8902,-4.8946,-4.8933,-4.8949,-4.8913,-4.8872,-4.8863,-4.8775,-4.8825,-4.8703,-4.8772,-4.8691,-4.8697,-4.8672,-4.8678,-4.8678,-4.8545,-4.8748,-4.9074,-4.9106,-4.8678,-4.8675,-4.8672,0,-4.9116,-4.9127,-4.9192,-4.9181,-4.9104,-4.9138,-4.9108,-4.9064,-4.9067,-4.9057,-4.9058,-4.9055,-4.9054,-4.9054,-4.8968,-4.8887,-4.9049,-4.8919,-4.9018,-4.9021,-4.906,-4.9059,-4.9394,-4.9062,-4.9062,-4.9061,-4.906,0,-4.9365,-4.9436,-4.9303,-4.9344,-4.942,-4.931,-4.939,-4.9346,-4.9309,-4.9341,-4.9224,-4.9257,-4.914,-4.9161,-4.9095,-4.9163,-4.9163,-4.9133,-4.9115,-4.9145,-4.9149,-4.9149,-4.9133,-4.9069,-4.9067,-4.9066,-4.9064,0,-4.9657,-4.957,-4.9633,-4.9554,-4.9536,-4.9596,-4.953,-4.9566,-4.9507,-4.9548,-4.9552,-4.9461,-4.9479,-4.9393,-4.9397,-4.9352,-4.9456,-4.9413,-4.9468,-4.9455,-4.9559,-4.9552,-4.9908,-4.995,-4.959,-4.9594,-4.9597,0,-4.9822,-4.9873,-4.98,-4.9811,-4.9787,-4.9807,-4.9809,-4.9703,-4.971,-4.9672,-4.9714,-4.9722,-4.9723,-4.976,-4.9696,-4.9699,-4.9656,-4.9781,-4.9656,-4.9685,-4.966,-4.9659,-4.9664,-4.9808,-4.9812,-4.9816,-4.9818,0,-5.0125,-5.0079,-5.0084,-5.0076,-5.0081,-5.007,-5.0051,-5.0068,-4.9954,-4.9968,-4.9985,-4.9986,-4.9989,-5.0,-4.999,-4.9961,-4.9873,-4.9858,-4.9881,-4.9913,-4.9943,-4.993,-4.954,-4.9851,-4.9847,-4.9845,-4.9843,-4.9842,-5.0359,-5.0398,-5.0353,-5.0364,-5.0338,-5.0323,-5.0353,-5.0297,-5.0308,-5.0301,-5.0239,-5.0268,-5.0231,-5.0208,-5.0188,-5.0211,-5.0152,-5.0186,-5.0194,-5.0205,-5.0224,-4.9938,-5.0208,-5.0207,-5.0206,-5.0205,-5.0205,0,-5.0657,-5.0621,-5.0632,-5.0608,-5.0617,-5.0529,-5.0504,-5.0519,-5.0545,-5.0517,-5.052,-5.054,-5.055,-5.0487,-5.0489,-5.0519,-5.0479,-5.0524,-5.0521,-5.0517,-5.0275,-5.0255,-5.0556,-5.0556,-5.0556,-5.0556,-5.0556,-5.0556,-5.0813,-5.0876,-5.0826,-5.0876,-5.0839,-5.0865,-5.0858,-5.0845,-5.0822,-5.0849,-5.0856,-5.0813,-5.0771,-5.0769,-5.0776,-5.0757,-5.0764,-5.0824,-5.0792,-5.0568,-5.0533,-5.0501,-5.0482,-5.0826,-5.0826,-5.1031,-5.1033,-5.1034]},{"header":{"parameterUnit":"m.s-1","parameterCategory":1,"la1":30.2991,"la2":30.254,"lo1":-89.0895,"lo2":-89.0444,"dy":0.0017,"dx":0.0017,"nx":28,"ny":28,"refTime":"2023-10-11T03:00:00:Z","depth":0,"parameterNumber":3,"parameterNumberName":"V-component_of_WINDS"},"data":[0,0,0,0,0,0,0,0,0,0,0,0,0,0,0,0,0,0,0,0,0,0,0,0,0,0,0,0,0,0,0,0,0,0,0,0,0,0,0,0,0,0,0,0,0,0,0,0,0,0,0,0,0,0,0,0,0,0,-4.5617,-4.5617,0,-4.5612,-4.5612,-4.5612,-4.5553,-4.5551,-4.555,-4.5548,-4.5543,-4.5544,-4.5545,0,0,0,0,0,0,0,0,0,0,0,0,0,-4.5576,-4.5577,-4.5617,-4.5617,-4.5617,-4.5612,-4.5612,-4.5612,-4.5553,-4.5551,-4.5549,-4.5548,-4.5543,-4.5544,-4.5546,0,0,0,0,0,0,0,0,0,0,0,0,0,-4.5585,-4.5578,-4.5617,-4.5587,-4.5584,-4.5612,-4.5612,-4.5612,-4.5553,-4.5551,-4.5549,-4.5547,-4.5542,-4.5544,-4.5546,-4.5602,0,0,-4.5552,-4.5552,0,0,0,0,0,0,0,0,-4.5584,-4.5586,-4.5592,-4.5589,-4.5586,-4.5581,-4.5595,-4.5609,-4.5554,-4.5565,-4.5548,-4.5546,-4.5557,-4.5558,-4.5562,-4.5602,-4.5601,-4.5552,-4.5553,-4.5554,-4.5554,0,0,0,0,0,0,0,-4.5584,-4.5586,-4.5615,-4.5592,-4.5588,-4.5574,-4.5573,-4.5598,-4.5574,-4.5564,-4.556,-4.556,-4.5556,-4.556,-4.5561,-4.5601,-4.5552,-4.5553,-4.5554,-4.5555,-4.5688,-4.569,0,0,0,0,0,0,-4.5587,-4.5586,-4.5615,-4.5615,-4.558,-4.5577,-4.5575,-4.5585,-4.5573,-4.557,-4.5562,-4.5557,-4.5558,-4.5559,-4.5561,-4.5626,-4.5554,-4.5555,-4.5556,-4.5685,-4.5688,-4.5691,0,0,0,0,0,0,-4.5587,-4.5591,-4.5615,-4.5599,-4.5601,-4.558,-4.5591,-4.5586,-4.559,-4.5572,-4.5567,-4.5571,-4.5556,-4.5558,-4.5592,-4.5625,-4.5556,-4.5558,-4.5683,-4.5686,-4.569,-4.5757,0,0,0,0,0,0,-4.5586,-4.5591,-4.5612,-4.56,-4.5603,-4.5647,-4.5593,-4.5587,-4.5594,-4.5588,-4.5579,-4.5576,-4.5555,-4.559,-4.5594,-4.5626,-4.5559,-4.5679,-4.5684,-4.5688,-4.5752,-4.5762,-4.5772,0,0,0,0,0,-4.5585,-4.5631,-4.5613,-4.5617,-4.5628,-4.5649,-4.565,-4.5626,-4.5597,-4.5618,-4.5606,-4.5576,-4.5621,-4.5594,-4.5598,-4.5631,-4.5677,-4.5683,-4.5688,-4.5747,-4.576,-4.5771,0,0,0,0,0,0,-4.5646,-4.5629,-4.5609,-4.5653,-4.5653,-4.5639,-4.5665,-4.564,-4.5648,-4.5642,-4.5611,-4.561,-4.5649,-4.5643,-4.5614,-4.5686,-4.5644,-4.5651,-4.5687,-4.57,-4.5709,-4.571,-4.5561,0,0,0,0,0,-4.5665,-4.5683,-4.5667,-4.5707,-4.5708,-4.5687,-4.5695,-4.5676,-4.5675,-4.5674,-4.5665,-4.5665,-4.5679,-4.5689,-4.5701,-4.5751,-4.5748,-4.5776,-4.5786,-4.5794,-4.58,-4.5826,-4.5839,-4.5709,-4.5709,-4.5708,0,0,-4.5703,-4.5696,-4.571,-4.5719,-4.5717,-4.5737,-4.5687,-4.571,-4.5724,-4.5678,-4.5709,-4.5703,-4.5701,-4.5743,-4.5761,-4.574,-4.5836,-4.5801,-4.5808,-4.5809,-4.5833,-4.5846,-4.5857,-4.5712,-4.5712,-4.5711,0,0,-4.5784,-4.578,-4.5814,-4.5813,-4.5811,-4.5796,-4.5804,-4.5795,-4.5788,-4.582,-4.5785,-4.5802,-4.5827,-4.5827,-4.5831,-4.5913,-4.5886,-4.5918,-4.597,-4.5996,-4.6006,-4.6015,-4.6044,-4.6055,-4.5924,-4.5924,-4.5924,0,-4.5832,-4.5861,-4.5834,-4.5859,-4.5865,-4.5824,-4.5858,-4.5858,-4.586,-4.5865,-4.5841,-4.5872,-4.5868,-4.591,-4.593,-4.5934,-4.5943,-4.5918,-4.6007,-4.6015,-4.6023,-4.6051,-4.6062,-4.5928,-4.5928,-4.5927,-4.5927,0,-4.592,-4.5941,-4.5968,-4.5971,-4.598,-4.6009,-4.5987,-4.5999,-4.598,-4.5968,-4.6001,-4.5995,-4.6005,-4.6013,-4.5994,-4.6053,-4.604,-4.6012,-4.597,-4.604,-4.6065,-4.6076,-4.5934,-4.5932,-4.5931,-4.593,0,0,-4.6038,-4.6027,-4.6037,-4.6039,-4.6034,-4.6049,-4.6077,-4.6087,-4.6098,-4.6101,-4.6124,-4.6147,-4.6121,-4.6125,-4.6106,-4.6129,-4.6195,-4.6098,-4.6098,-4.6116,-4.6259,-4.628,-4.6293,-4.6177,-4.6179,-4.6181,-4.626,0,-4.6116,-4.6163,-4.614,-4.619,-4.6209,-4.6171,-4.6195,-4.6195,-4.6185,-4.62,-4.6189,-4.6205,-4.617,-4.6172,-4.6193,-4.6182,-4.6223,-4.6176,-4.6198,-4.6199,-4.6199,-4.6306,-4.6328,-4.6403,-4.6269,-4.6271,-4.6272,0,-4.6212,-4.622,-4.6272,-4.6264,-4.6271,-4.6294,-4.6302,-4.6316,-4.6315,-4.6307,-4.6312,-4.6288,-4.6315,-4.6273,-4.631,-4.6279,-4.6287,-4.6283,-4.6285,-4.6286,-4.624,-4.631,-4.6426,-4.6437,-4.6288,-4.6286,-4.6285,0,-4.6293,-4.6317,-4.6351,-4.6353,-4.6345,-4.6362,-4.6359,-4.6356,-4.6364,-4.6371,-4.6376,-4.6387,-4.6392,-4.6401,-4.638,-4.6352,-4.642,-4.6377,-4.6414,-4.6414,-4.6429,-4.6428,-4.6548,-4.6435,-4.6435,-4.6435,-4.6434,0,-4.6382,-4.6415,-4.6387,-4.6408,-4.6444,-4.6418,-4.6455,-4.6448,-4.6446,-4.6465,-4.6433,-4.6452,-4.6424,-4.644,-4.6424,-4.6457,-4.646,-4.6454,-4.6449,-4.6456,-4.6457,-4.6461,-4.6455,-4.6437,-4.6437,-4.6436,-4.6436,0,-4.6478,-4.6461,-4.6496,-4.6486,-4.6484,-4.6511,-4.6502,-4.6522,-4.651,-4.6535,-4.6539,-4.6521,-4.6538,-4.6518,-4.6534,-4.6523,-4.6568,-4.6556,-4.6569,-4.6565,-4.6603,-4.66,-4.6729,-4.6744,-4.6622,-4.6623,-4.6624,0,-4.6536,-4.6561,-4.6554,-4.6565,-4.6564,-4.6582,-4.659,-4.6565,-4.6575,-4.6577,-4.6596,-4.6611,-4.6621,-4.665,-4.6638,-4.665,-4.6638,-4.6683,-4.664,-4.6646,-4.6639,-4.6637,-4.664,-4.6691,-4.6693,-4.6694,-4.6695,0,-4.664,-4.6631,-4.6644,-4.6654,-4.6665,-4.6672,-4.6677,-4.6687,-4.6662,-4.6675,-4.6692,-4.67,-4.6717,-4.6732,-4.674,-4.6738,-4.6712,-4.6709,-4.6718,-4.6725,-4.6731,-4.6729,-4.6592,-4.6706,-4.6705,-4.6704,-4.6703,-4.6703,-4.6719,-4.6739,-4.6738,-4.6754,-4.6755,-4.676,-4.6778,-4.6769,-4.6783,-4.6794,-4.6779,-4.6801,-4.68,-4.6809,-4.681,-4.6826,-4.6807,-4.6821,-4.6824,-4.6827,-4.6833,-4.6729,-4.6828,-4.6828,-4.6827,-4.6827,-4.6827,0,-4.6821,-4.6819,-4.6834,-4.6841,-4.6854,-4.683,-4.6834,-4.6846,-4.6866,-4.6867,-4.6878,-4.6899,-4.6913,-4.6903,-4.6916,-4.6931,-4.692,-4.6935,-4.6933,-4.6933,-4.6849,-4.684,-4.6944,-4.6944,-4.6944,-4.6944,-4.6944,-4.6944,-4.6876,-4.691,-4.69,-4.6934,-4.6931,-4.6952,-4.6957,-4.6962,-4.6963,-4.6987,-4.6999,-4.6993,-4.699,-4.7002,-4.7014,-4.7011,-4.7017,-4.7036,-4.7029,-4.6951,-4.6939,-4.6928,-4.6919,-4.7038,-4.7038,-4.7111,-4.7112,-4.7112]}]]